Regional Weather Roundup
Issued by NWS

Home | Current Version | Previous Version | Text Only | Print | Product List | Glossary On
Versions: 1 2 3 4 5 6 7 8 9 10 11 12 13 14 15 16 17 18 19 20 21 22 23 24 25 26 27 28 29 30 31 32 33 34 35 36 37 38 39 40 41 42 43 44 45 46 47 48 49 50
000
ASUS45 KSLC 092310
RWRUT

UTAH REGIONAL WEATHER ROUNDUP
NATIONAL WEATHER SERVICE SALT LAKE CITY UT
400 PM MST FRI DEC 09 2016

UTZ001>011-023>025-100000-

NORTHERN UTAH

CITY           SKY/WX    TMP DP  RH WIND       PRES   REMARKS
BRIGHAM CITY     N/A     36  32  86 CALM      30.16F
HILL AFB       CLOUDY    35  31  85 N5        30.14F WCI  31
LOGAN          MIX PCPN  34  33  96 W5        30.15F FOG     WCI  30
OGDEN          CLOUDY    36  31  82 SE5       30.14F WCI  32
SALT LAKE CITY CLOUDY    38  31  76 N9        30.15S WCI  31
WENDOVER       PTCLDY    34  21  60 CALM      30.15F
HEBER CITY     CLOUDY    37  32  81 CALM      30.13F

$$

UTZ011>015-024>027-100000-

CENTRAL/NORTHEAST UTAH

CITY           SKY/WX    TMP DP  RH WIND       PRES   REMARKS
PROVO AIRPORT  MOCLDY    44  33  65 CALM      30.17F
MOAB/CANYONLAN PTCLDY    38  11  32 NW7       30.27R WCI  33
DELTA          PTCLDY    50  27  40 S6        30.16F
PRICE          CLOUDY    36  10  34 S3        30.24S
ROOSEVELT      PTCLDY    30  18  59 CALM      30.25S
VERNAL         CLOUDY    31  13  47 CALM      30.21F

$$

UTZ013>016-019>022-027-100000-

SOUTHERN UTAH

CITY           SKY/WX    TMP DP  RH WIND       PRES   REMARKS
BRYCE CANYON   SUNNY     39  23  52 S8        30.26R WCI  33
CEDAR CITY     SUNNY     48  32  53 SW13      30.20S
MILFORD        MOSUNNY   51  26  37 SW23      30.16F
ST GEORGE      MOCLDY    50  25  37 CALM      30.26S
HANKSVILLE     PTCLDY    37   9  30 CALM      30.30F
BLANDING       PTCLDY    44  22  41 CALM      30.33S

$$

REGIONAL REPORTS     COLORADO/ARIZONA

CITY           SKY/WX    TMP DP  RH WIND       PRES   REMARKS
CRAIG, CO      CLOUDY    34  27  75 E10       30.18F WCI  26
GRAND JUNCTION CLOUDY    36  17  46 CALM      30.27S
RIFLE, CO      CLOUDY    33  20  58 CALM      30.27F
MONTROSE, CO   CLOUDY    38  20  48 CALM      30.26F
CORTEZ, CO     CLOUDY    47  25  42 N3        30.26F
COLORADO CITY    N/A     52  34  50 CALM      30.26S
PAGE, AZ       SUNNY     46  13  26 E3        30.24F
GRAND CANYON   MOSUNNY   48  35  60 W5        30.27S
KINGMAN, AZ    PTSUNNY   59  27  29 N8        30.21F
FLAGSTAFF, AZ  MOSUNNY   48  33  56 S10       30.27S

$$

REGIONAL REPORTS    NEVADA/IDAHO/WYOMING

CITY           SKY/WX    TMP DP  RH WIND       PRES   REMARKS
LAS VEGAS, NV  PTSUNNY   55  10  16 N5        30.23S
ELY, NY        PTSUNNY   42  21  43 NE7       30.18F
ELKO, NV       PTSUNNY   42  25  50 SW6       30.10F
POCATELLO, ID  LGT RAIN  30  28  92 N9        30.08F WCI  22
BURLEY, ID     LGT RAIN  38  34  85 SW12      30.05  WCI  30
FORT BRIDGER,  CLOUDY    39  31  73 W18G26    30.14F WCI  29
EVANSTON, WY   CLOUDY    35  27  72 SW13      30.12S WCI  26
ROCK SPRINGS,  CLOUDY    36  28  73 W24       30.09R WCI  24
KEMMERER, WY     N/A     32  30  93 W15       30.10S WCI  22

$$



USA.gov is the U.S. government's official web portal to all federal, state and local government web resources and services.